Weather Roundup
Issued by NWS Corpus Christi, TX

Home | Current Version | Previous Version | Text Only | Print | Product List | Glossary On
Versions: 1 2 3 4 5 6 7 8 9 10 11 12 13 14 15 16 17 18 19 20 21 22 23 24 25 26 27 28 29 30 31 32 33 34 35 36 37 38 39 40 41 42 43 44 45 46 47 48 49 50
000
ASUS44 KCRP 181810
HRRCRP

SOUTH TEXAS REGIONAL WEATHER ROUNDUP
NATIONAL WEATHER SERVICE CORPUS CHRISTI TX
1200 PM CST MON DEC 18 2017


TXZ229>244-181900-
...CORPUS CHRISTI AREA OBSERVATIONS...

CITY           SKY/WX    TMP DP  RH WIND       PRES   REMARKS
CORPUS CHRISTI LGT RAIN  58  58 100 N6        30.14F FOG
NAS CORPUS CHR LGT RAIN  62  59  90 N9        30.13F
ROCKPORT       LGT RAIN  58  57  97 NW5       30.14F FOG
KINGSVILLE ARP DRIZZLE   59  59 100 CALM      30.16F
KINGSVILLE NAS LGT RAIN  59  59 100 N6        30.13F FOG
ALICE          LGT RAIN  58  56  93 CALM      30.14F FOG
$$

...VICTORIA AREA OBSERVATIONS...

CITY           SKY/WX    TMP DP  RH WIND       PRES   REMARKS
PORT LAVACA    LGT RAIN  60  59  95 NE5       30.16F
VICTORIA       CLOUDY    61  58  90 NE6       30.16F
BEEVILLE       LGT RAIN  58  58 100 NE5       30.15F
PLEASANTON     CLOUDY    54  54 100 NE3       30.18F FOG
SAN ANTONIO    DRZL/FOG  55  53  93 CALM      30.18F VSB 1/2
$$

...LAREDO AREA OBSERVATIONS...

CITY           SKY/WX    TMP DP  RH WIND       PRES   REMARKS
LAREDO         CLOUDY    54  54 100 NE6       30.16F
COTULLA        LGT RAIN  53  51  93 E8        30.16F FOG
DEL RIO        CLOUDY    51  47  86 SE3       30.17F
MCALLEN        CLOUDY    64  59  83 CALM      30.14F HAZE
HEBBRONVILLE   CLOUDY    55  55  97 NW7       30.17S FOG
$$

...OTHER TEXAS OBSERVATIONS...

CITY           SKY/WX    TMP DP  RH WIND       PRES   REMARKS
BROWNSVILLE    CLOUDY    69  62  78 NE6       30.12F
HOUSTON        PTSUNNY   67  59  75 NE7       30.16F
COL. STATION   CLOUDY    60  55  83 NE5       30.17F
AUSTIN         FOG       54  54 100 N3        30.18F VSB 1
WACO           FOG       50  50 100 CALM      30.18F VSB 3/4
FORT WORTH     CLOUDY    51  48  89 SE6       30.18F FOG
WICHITA FALLS  FOG       46  45  96 S6        30.17F VSB 3/4
LUBBOCK        PTSUNNY   58  38  47 SW10      30.12S
EL PASO        MOSUNNY   53  46  77 CALM      30.16R
$$

...MARINE OBSERVATIONS...

STATION/POSITION TIME  SKY/WX   TEMP    WIND        PRES    VSBY  WAVE   SWELL
                                AIR SEA DIR/SP/G                  HT/PER HT/PER
                 (UTC)          (F)     (DEG/KT/KT) (MB)    (MI)  (FT/S) (FT/S)
PORT ARANSAS     NOT AVBL
BUOY 90 E PORT A 1650            74 71  120/  8/ 10 1021.1          4/ 8   3/ 8
BUOY 200 E PT IS 1650            77 77  160/ 12/ 14 1021.6          4/ 7   3/ 7
BUOY 15 E GALVES 1650            63 62   60/ 10/ 12 1022.0          3/ 7   2/ 7
$$



USA.gov is the U.S. government's official web portal to all federal, state and local government web resources and services.